Pueblo, CO

7:28 AM MST on December 03, 2016 (GMT -0700)
Pueblo Memorial

Weather History for KPUB - August, 2013

Change the Weather History Date:

Saturday, August 31, 2013

  Actual Average Record
Temperature  
Mean Temperature 80 °F 71 °F  
Max Temperature 92 °F 87 °F 101 °F (1985)
Min Temperature 68 °F 54 °F 42 °F (1993)
Degree Days  
Heating Degree Days 0 0  
Month to date heating degree days 0 0  
Since 1 June heating degree days 17 30  
Since 1 July heating degree days 0 5  
Cooling Degree Days 15 6  
Month to date cooling degree days 321 266  
Year to date cooling degree days 1060 811  
Since 1 June cooling degree days 987 777  
Growing Degree Days 30 (Base 50)    
Moisture  
Dew Point 54 °F    
Average Humidity 41    
Maximum Humidity 57    
Minimum Humidity 24    
Precipitation  
Precipitation T in 0.06 in 0.94 in (1902)
Month to date precipitation 3.92 2.32  
Year to date precipitation 7.80 10.23  
Snow  
Snow 0.00 in 0.00 in 0.00 in (2002)
Month to date snowfall 0.0 0.0  
Since 1 June snowfall T 0.0  
Since 1 July snowfall T 0.0  
Snow Depth 0.00 in    
Sea Level Pressure  
Sea Level Pressure 29.89 in    
Wind  
Wind Speed 8 mph (NNW)    
Max Wind Speed 38 mph    
Max Gust Speed 52 mph    
Visibility 9 miles    
Events Rain    
T = Trace of Precipitation, MM = Missing Value Source: NWS Daily Summary

Daily Weather History Graph

Daily Weather History Graph

Search for Another Location

Airport or City:

Trip Planner

Search our weather history database for the weather conditions in past years. The results will help you decide how hot, cold, wet, or windy it might be!

Date:

Astronomy

Aug. 31, 2013 Rise Set
Actual Time 6:26 AM MDT 7:28 PM MDT
Civil Twilight 5:59 AM MDT 7:55 PM MDT
Nautical Twilight 5:27 AM MDT 8:27 PM MDT
Astronomical Twilight 4:54 AM MDT 9:01 PM MDT
Moon 2:00 AM MDT (8/31) 4:26 PM MDT (8/31)
Length of Visible Light 13h 56m
Length of Day
13h 01m
Waning Crescent, 20% of the Moon is Illuminated
Aug 31
Waning Crescent
Sep 5
New
Sep 12
First Quarter
Sep 19
Full
Sep 26
Last Quarter

Hourly Weather History & Observations

Time (MDT) Temp. Heat Index Dew Point Humidity Pressure Visibility Wind Dir Wind Speed Gust Speed Precip Events Conditions
12:53 AM 77.0 °F - 48.9 °F 37% 29.86 in 10.0 mi NNE 10.4 mph - N/A   Clear
1:53 AM 75.9 °F - 48.9 °F 38% 29.85 in 10.0 mi Variable 3.5 mph - N/A   Clear
2:53 AM 75.0 °F - 48.9 °F 40% 29.86 in 10.0 mi Calm Calm - N/A   Clear
3:53 AM 73.9 °F - 48.9 °F 41% 29.85 in 10.0 mi NW 4.6 mph - N/A   Clear
4:53 AM 69.1 °F - 50.0 °F 51% 29.86 in 10.0 mi WNW 5.8 mph - N/A   Clear
5:53 AM 69.1 °F - 51.1 °F 53% 29.86 in 10.0 mi NW 5.8 mph - N/A   Clear
6:53 AM 70.0 °F - 51.1 °F 51% 29.89 in 10.0 mi Calm Calm - N/A   Clear
7:53 AM 71.1 °F - 52.0 °F 51% 29.91 in 10.0 mi East 6.9 mph - N/A   Clear
8:53 AM 75.0 °F - 55.9 °F 51% 29.91 in 10.0 mi East 13.8 mph - N/A   Clear
9:53 AM 77.0 °F - 57.9 °F 52% 29.91 in 10.0 mi East 5.8 mph - N/A   Clear
10:53 AM 79.0 °F - 57.9 °F 48% 29.89 in 10.0 mi Variable 4.6 mph - N/A   Clear
11:53 AM 82.0 °F 81.7 °F 57.0 °F 42% 29.87 in 10.0 mi Calm Calm - N/A   Clear
12:53 PM 86.0 °F 84.7 °F 55.9 °F 36% 29.84 in 10.0 mi Calm Calm - N/A   Clear
1:53 PM 90.0 °F 87.5 °F 53.1 °F 28% 29.82 in 10.0 mi NE 5.8 mph - N/A   Clear
2:53 PM 91.0 °F 88.7 °F 54.0 °F 28% 29.80 in 10.0 mi Variable 4.6 mph - N/A   Clear
3:53 PM 91.0 °F 88.7 °F 54.0 °F 28% 29.78 in 10.0 mi SSE 10.4 mph - N/A   Clear
4:53 PM 89.1 °F - 48.0 °F 24% 29.80 in 10.0 mi South 3.5 mph - N/A   Clear
5:19 PM 82.4 °F - 51.8 °F 35% 30.04 in 1.0 mi WNW 24.2 mph 51.8 mph N/A   Haze
5:30 PM 80.6 °F 80.3 °F 53.6 °F 39% 30.05 in 1.0 mi WNW 25.3 mph 36.8 mph N/A   Haze
5:45 PM 78.8 °F - 55.4 °F 44% 30.06 in 10.0 mi NW 26.5 mph 33.4 mph N/A   Clear
5:53 PM 80.1 °F - 52.0 °F 38% 29.86 in 10.0 mi NW 26.5 mph 32.2 mph N/A   Clear
6:53 PM 79.0 °F - 52.0 °F 39% 29.86 in 10.0 mi NNW 31.1 mph 39.1 mph N/A   Scattered Clouds
7:53 PM 70.0 °F - 59.0 °F 68% 29.89 in 10.0 mi North 24.2 mph 35.7 mph 0.00 in Rain Light Rain
8:53 PM 72.0 °F - 57.0 °F 59% 29.91 in 10.0 mi NW 12.7 mph - 0.00 in   Clear
9:05 PM 71.6 °F - 57.2 °F 60% 30.10 in 10.0 mi WNW 15.0 mph - N/A   Scattered Clouds
9:53 PM 72.0 °F - 55.9 °F 57% 29.91 in 10.0 mi WNW 11.5 mph - N/A   Partly Cloudy
10:53 PM 72.0 °F - 55.9 °F 57% 29.93 in 10.0 mi ESE 3.5 mph - N/A   Mostly Cloudy
11:53 PM 71.1 °F - 57.9 °F 63% 29.94 in 10.0 mi East 4.6 mph - 0.00 in Rain Light Rain